DW7807 Weather Reports


time (UTC)temp
F
wind
direction
speed
knots
gust
knots
rain 1hr
in
rain 24hr
in
rain mn
in
humidity
%
barometer
mb
20260503200018 54 267 5.2 15.6 0.00 0.00 0.00 42 1018.7
20260503194517 54 317 5.2 9.6 0.00 0.00 0.00 39 1018.9
20260503193013 53 279 5.2 8.7 0.00 0.00 0.00 46 1019.1
20260503191527 53 325 6.1 11.3 0.00 0.00 0.00 43 1019.4
20260503190009 51 327 5.2 8.7 0.00 0.00 0.00 42 1019.7
20260503184509 52 281 3.5 10.4 0.00 0.00 0.00 42 1019.7
20260503183006 52 302 5.2 10.4 0.00 0.00 0.00 43 1019.9
20260503181507 50 302 6.1 12.2 0.00 0.00 0.00 45 1020.2
20260503180004 50 292 2.6 10.4 0.00 0.00 0.00 46 1020.1
20260503174502 50 226 4.3 12.2 0.00 0.00 0.00 48 1020.3
20260503173112 49 257 3.5 12.2 0.00 0.00 0.00 47 1020.4
20260503171557 49 309 3.5 9.6 0.00 0.00 0.00 47 1020.5
20260503170106 48 279 4.3 9.6 0.00 0.00 0.00 49 1020.7
20260503081543 33 319 0.0 0.0 0.00 0.00 0.00 84 1019.7
20260503071534 35 319 0.0 0.0 0.00 0.00 0.00 83 1018.9
20260503054536 36 319 0.0 0.0 0.00 0.00 0.00 81 1018.9
20260503053031 36 319 0.0 0.0 0.00 0.00 0.00 81 1018.9
20260503051526 36 319 0.0 0.0 0.00 0.00 0.00 81 1018.9
20260503050032 36 319 0.0 0.0 0.00 0.00 0.00 80 1018.8
20260503044524 36 319 0.0 0.0 0.00 0.00 0.00 80 1018.9
20260503043037 36 319 0.0 0.0 0.00 0.00 0.00 80 1019.0
20260503041524 36 319 0.0 0.0 0.00 0.00 0.00 80 1018.9
20260503040020 36 319 0.0 0.0 0.00 0.00 0.00 79 1018.9
20260503034520 36 319 0.0 0.0 0.00 0.00 0.00 79 1019.0
20260503033028 37 319 0.0 0.0 0.00 0.00 0.00 78 1018.9
20260503031519 37 319 0.0 2.6 0.00 0.00 0.00 78 1019.0
20260503030018 37 319 0.0 2.6 0.00 0.00 0.00 77 1019.0
20260503024525 37 319 1.7 3.5 0.00 0.00 0.00 76 1018.9
20260503023018 37 319 1.7 4.3 0.00 0.00 0.00 75 1019.0
20260503021536 37 319 2.6 5.2 0.00 0.00 0.00 75 1019.0
20260503020016 38 319 4.3 8.7 0.00 0.00 0.00 75 1018.9
20260503014515 38 337 4.3 8.7 0.00 0.00 0.00 77 1019.0
20260503013015 38 331 2.6 7.0 0.00 0.00 0.00 76 1018.9
20260503011515 39 331 1.7 7.0 0.00 0.00 0.00 75 1018.8
20260503010012 39 321 3.5 7.0 0.00 0.00 0.00 74 1018.6
20260503004510 39 341 3.5 12.2 0.00 0.01 0.00 73 1018.4
20260503003013 40 325 2.6 11.3 0.00 0.01 0.00 73 1018.1
20260503001509 40 327 4.3 10.4 0.00 0.01 0.00 71 1017.9
20260503000010 41 334 5.2 10.4 0.00 0.01 0.00 70 1017.7
20260502234507 42 12 3.5 10.4 0.00 0.01 0.00 69 1017.6
20260502233007 43 360 3.5 10.4 0.00 0.01 0.00 66 1017.5
20260502231513 43 321 5.2 10.4 0.00 0.01 0.00 62 1017.2
20260502230006 44 322 3.5 10.4 0.00 0.01 0.00 59 1017.0
20260502224504 44 321 2.6 9.6 0.00 0.02 0.00 57 1016.9
20260502223004 45 350 6.1 10.4 0.00 0.02 0.00 55 1016.8
20260502221503 45 295 5.2 9.6 0.00 0.02 0.00 54 1016.6
20260502220003 46 310 3.5 11.3 0.00 0.02 0.00 54 1016.5
20260502214501 46 5 2.6 9.6 0.00 0.02 0.00 55 1016.3
20260502213003 46 311 4.3 13.0 0.00 0.02 0.00 51 1016.3
20260502211502 46 310 3.5 7.8 0.00 0.02 0.00 51 1016.1
20260502210100 46 321 4.3 10.4 0.00 0.02 0.00 52 1016.2
20260502204606 46 325 5.2 10.4 0.00 0.02 0.00 51 1016.0
20260502203104 47 280 5.2 12.2 0.00 0.02 0.00 51 1016.1
20260502201557 46 265 5.2 10.4 0.00 0.02 0.00 51 1016.2